Location: �perlecques
(50.8057°N, 2.1521°E)
Time: 23:10:21
(UTC+00:00)

DUCHIFAT 1 - Visible Passes

Search period start: 22 March 2023 00:00
Search period end: 01 April 2023 00:00
Orbit: 571 x 585 km, 98.0° (Epoch: 21 March)

Date Brightness Start Highest point End Pass type
(mag) Time Alt. Az. Time Alt. Az. Time Alt. Az.
22 Mar ? 02:18:49 10° NE 02:21:51 23° E 02:21:51 23° E visible
22 Mar ? 03:53:39 10° N 03:57:33 41° WNW 03:58:10 38° W visible
23 Mar ? 02:23:06 10° NE 02:26:25 25° E 02:26:25 25° E visible
23 Mar ? 03:58:04 10° N 04:01:53 38° WNW 04:02:43 34° W visible
24 Mar ? 02:27:21 10° NE 02:30:54 27° E 02:30:57 27° E visible
24 Mar ? 04:02:28 10° N 04:06:12 35° WNW 04:07:16 30° W visible
25 Mar ? 02:31:38 10° NE 02:35:16 29° E 02:35:28 29° ESE visible
25 Mar ? 04:06:51 10° N 04:10:30 32° WNW 04:11:47 26° W visible
26 Mar ? 02:35:52 10° NNE 02:39:35 32° E 02:39:58 32° ESE visible
26 Mar ? 04:11:12 10° N 04:14:47 29° WNW 04:16:16 23° WSW visible
27 Mar ? 02:40:06 10° NNE 02:43:54 35° E 02:44:27 34° ESE visible
27 Mar ? 04:15:33 10° N 04:19:02 27° WNW 04:20:44 20° WSW visible
28 Mar ? 02:44:19 10° NNE 02:48:11 39° E 02:48:54 35° SE visible
28 Mar ? 04:19:53 10° N 04:23:16 25° WNW 04:25:12 18° WSW visible
29 Mar ? 02:48:31 10° NNE 02:52:27 42° E 02:53:20 37° SE visible
29 Mar ? 04:24:13 10° N 04:27:28 23° WNW 04:29:37 16° WSW visible
30 Mar ? 02:52:43 10° NNE 02:56:41 47° E 02:57:44 37° SE visible
30 Mar ? 04:28:31 10° NNW 04:31:40 22° WNW 04:34:03 14° WSW visible
31 Mar ? 02:56:53 10° NNE 03:00:54 51° E 03:02:08 37° SSE visible
31 Mar ? 04:32:49 10° NNW 04:35:50 20° WNW 04:38:26 12° WSW visible
